This is the latest recevied weather packets stored in our database for station/object DO1MIT-10. If no packets are shown the sender has not sent any weather packets the latest 10 day(s).
| Time | Temp. | Humidity | Pressure | Rain* | Wind** | Luminosity | Snow |
|---|---|---|---|---|---|---|---|
| 1777282430 | 15.56° C | 54% | 1026.7 hPa | - | - | - | - |
| 1777281529 | 15° C | 55% | 1026.9 hPa | - | - | - | - |
| 1777280629 | 15° C | 56% | 1027 hPa | - | - | - | - |
| 1777279729 | 14.44° C | 57% | 1027.1 hPa | - | - | - | - |
| 1777278829 | 13.33° C | 58% | 1027.2 hPa | - | - | - | - |
| 1777277929 | 12.22° C | 60% | 1027.1 hPa | - | - | - | - |
| 1777277029 | 12.78° C | 61% | 1027.2 hPa | - | - | - | - |
| 1777276129 | 12.22° C | 62% | 1027.1 hPa | - | - | - | - |
| 1777275229 | 12.22° C | 63% | 1027.1 hPa | - | - | - | - |
| 1777274329 | 11.11° C | 65% | 1026.9 hPa | - | - | - | - |
| 1777273428 | 10° C | 66% | 1026.9 hPa | - | - | - | - |
| 1777272528 | 9.44° C | 67% | 1027 hPa | - | - | - | - |
| 1777271628 | 8.33° C | 68% | 1027 hPa | - | - | - | - |
| 1777270728 | 7.78° C | 69% | 1027 hPa | - | - | - | - |
| 1777269828 | 6.67° C | 69% | 1026.9 hPa | - | - | - | - |
| 1777268928 | 5.56° C | 70% | 1027 hPa | - | - | - | - |
| 1777268028 | 4.44° C | 71% | 1027.1 hPa | - | - | - | - |
| 1777267128 | 3.89° C | 71% | 1027.1 hPa | - | - | - | - |
| 1777266228 | 2.78° C | 72% | 1026.9 hPa | - | - | - | - |
| 1777265328 | 2.22° C | 72% | 1026.7 hPa | - | - | - | - |
| 1777264428 | 1.67° C | 72% | 1026.8 hPa | - | - | - | - |
| 1777263527 | 1.67° C | 72% | 1026.8 hPa | - | - | - | - |
| 1777262627 | 1.67° C | 72% | 1026.7 hPa | - | - | - | - |
| 1777261727 | 1.67° C | 72% | 1026.7 hPa | - | - | - | - |
| 1777260827 | 1.67° C | 72% | 1026.6 hPa | - | - | - | - |
* Rain since midnight (hover to see other rain measurements)
** Current wind speed in m/s (hover to see current wind gust speed)